Location: Cassano d�Adda
(45.5333°N, 9.5167°E)
Time: 03:21:37
(UTC+00:00)

Cosmos 1707 Rocket - Pass Details

Date: 08 December 2019
Orbit: 604 x 633 km, 82.5° (Epoch: 19 January)

Event Time Altitude Azimuth Distance (km) Brightness Sun altitude
Rises 16:27:42 0° 189° (S) 2,904 7.5 -8.4°
Reaches altitude 10° 16:29:55 10° 190° (S) 2,005 6.7 -8.8°
Maximum altitude 16:34:22 83° 277° (W) 643 3.7 -9.5°
Drops below altitude 10° 16:38:53 10° 7° (N) 2,027 5.9 -10.2°
Sets 16:41:08 0° 9° (N) 2,939 6.7 -10.6°
